Weather History for KLNP - November, 2011

Change the Weather History Date:

Monday, November 14, 2011

  Actual Average Record
Temperature  
Mean Temperature 62 °F -  
Max Temperature 66 °F 51 °F 69 °F (1999)
Min Temperature 59 °F 34 °F 19 °F (2014)
Degree Days  
Heating Degree Days 2    
Growing Degree Days 12 (Base 50)    
Moisture  
Dew Point 52 °F    
Average Humidity 68    
Maximum Humidity 73    
Minimum Humidity 59    
Precipitation  
Precipitation 0.00 in - - ()
Sea Level Pressure  
Sea Level Pressure 30.02 in    
Wind  
Wind Speed 17 mph (SSW)    
Max Wind Speed 28 mph    
Max Gust Speed 37 mph    
Visibility 10 miles    
Events      
Averages and records for this station are not official NWS values.
T = Trace of Precipitation, MM = Missing Value Source: NWS Daily Summary

Daily Weather History Graph

Daily Weather History Graph

Search for Another Location

Airport or City:

Trip Planner

Search our weather history database for the weather conditions in past years. The results will help you decide how hot, cold, wet, or windy it might be!

Date:

Astronomy

Nov. 14, 2011 Rise Set
Actual Time 7:07 AM EST 5:21 PM EST
Civil Twilight 6:39 AM EST 5:48 PM EST
Nautical Twilight 6:08 AM EST 6:20 PM EST
Astronomical Twilight 5:37 AM EST 6:50 PM EST
Moon 8:28 PM EST (11/14) 10:23 AM EST (11/14)
Length of Visible Light 11h 09m
Length of Day
10h 13m
Waning Gibbous, 87% of the Moon is Illuminated
Nov 14
Waning Gibbous
Nov 18
Last Quarter
Nov 25
New
Dec 2
First Quarter
Dec 10
Full

Hourly Weather History & Observations

Time (EST) Temp. Dew Point Humidity Pressure Visibility Wind Dir Wind Speed Gust Speed Precip Events Conditions
12:35 AM 60.8 °F 46.4 °F 59% 30.05 in 10.0 mi SSW 23.0 mph 29.9 mph N/A   Unknown
12:55 AM 60.8 °F 46.4 °F 59% 30.05 in 10.0 mi SSW 18.4 mph 32.2 mph N/A   Unknown
1:15 AM 59.0 °F 46.4 °F 63% 30.05 in 10.0 mi SW 16.1 mph 25.3 mph N/A   Unknown
1:35 AM 59.0 °F 46.4 °F 63% 30.05 in 10.0 mi SW 20.7 mph 26.5 mph N/A   Unknown
1:55 AM 59.0 °F 46.4 °F 63% 30.04 in 10.0 mi SW 20.7 mph 27.6 mph N/A   Unknown
2:15 AM 59.0 °F 48.2 °F 67% 30.05 in 10.0 mi SW 18.4 mph 27.6 mph N/A   Unknown
2:35 AM 59.0 °F 48.2 °F 67% 30.05 in 10.0 mi SW 17.3 mph 28.8 mph N/A   Unknown
2:55 AM 59.0 °F 48.2 °F 67% 30.05 in 10.0 mi SW 21.9 mph 27.6 mph N/A   Unknown
3:15 AM 59.0 °F 48.2 °F 67% 30.06 in 10.0 mi SW 18.4 mph 29.9 mph N/A   Unknown
3:55 AM 59.0 °F 48.2 °F 67% 30.06 in 10.0 mi SW 17.3 mph 25.3 mph N/A   Unknown
4:35 AM 59.0 °F 50.0 °F 72% 30.06 in 10.0 mi SW 10.4 mph 16.1 mph N/A   Unknown
4:55 AM 59.0 °F 50.0 °F 72% 30.06 in 10.0 mi SSW 6.9 mph - N/A   Unknown
5:15 AM 59.0 °F 48.2 °F 67% 30.06 in 10.0 mi SSW 6.9 mph - N/A   Unknown
5:35 AM 59.0 °F 48.2 °F 67% 30.06 in 10.0 mi South 8.1 mph - N/A   Unknown
6:15 AM 59.0 °F 48.2 °F 67% 30.06 in 10.0 mi South 9.2 mph - N/A   Unknown
6:35 AM 59.0 °F 48.2 °F 67% 30.06 in 10.0 mi South 9.2 mph 16.1 mph N/A   Unknown
7:15 AM 59.0 °F 48.2 °F 67% 30.06 in 10.0 mi SSW 11.5 mph 16.1 mph N/A   Unknown
7:35 AM 59.0 °F 48.2 °F 67% 30.07 in 10.0 mi SSW 9.2 mph 18.4 mph N/A   Unknown
8:15 AM 60.8 °F 50.0 °F 68% 30.08 in 10.0 mi SSW 16.1 mph 19.6 mph N/A   Unknown
8:35 AM 60.8 °F 50.0 °F 68% 30.08 in 10.0 mi SSW 11.5 mph 18.4 mph N/A   Unknown
8:55 AM 60.8 °F 50.0 °F 68% 30.07 in 10.0 mi South 8.1 mph 25.3 mph N/A   Unknown
9:15 AM 60.8 °F 48.2 °F 63% 30.07 in 10.0 mi South 11.5 mph 17.3 mph N/A   Unknown
9:35 AM 62.6 °F 48.2 °F 59% 30.07 in 10.0 mi SSW 13.8 mph 20.7 mph N/A   Unknown
9:55 AM 62.6 °F 50.0 °F 63% 30.07 in 10.0 mi South 13.8 mph 25.3 mph N/A   Unknown
10:15 AM 62.6 °F 51.8 °F 68% 30.07 in 10.0 mi SSW 17.3 mph 25.3 mph N/A   Unknown
10:35 AM 62.6 °F 51.8 °F 68% 30.07 in 10.0 mi South 15.0 mph 23.0 mph N/A   Unknown
10:55 AM 62.6 °F 51.8 °F 68% 30.06 in 10.0 mi SSW 18.4 mph 23.0 mph N/A   Unknown
11:15 AM 62.6 °F 51.8 °F 68% 30.06 in 10.0 mi South 12.7 mph 25.3 mph N/A   Unknown
11:35 AM 64.4 °F 51.8 °F 64% 30.05 in 10.0 mi SSW 17.3 mph 24.2 mph N/A   Unknown
11:55 AM 64.4 °F 51.8 °F 64% 30.04 in 10.0 mi South 19.6 mph 28.8 mph N/A   Unknown
12:15 PM 64.4 °F 51.8 °F 64% 30.03 in 10.0 mi SSW 17.3 mph 31.1 mph N/A   Unknown
12:35 PM 64.4 °F 53.6 °F 68% 30.02 in 10.0 mi SSW 21.9 mph 28.8 mph N/A   Unknown
12:55 PM 64.4 °F 53.6 °F 68% 30.03 in 10.0 mi SSW 19.6 mph 29.9 mph N/A   Unknown
1:15 PM 62.6 °F 53.6 °F 72% 30.01 in 10.0 mi SSW 17.3 mph 25.3 mph N/A   Unknown
1:35 PM 62.6 °F 53.6 °F 72% 30.01 in 10.0 mi SSW 20.7 mph 26.5 mph N/A   Unknown
1:55 PM 64.4 °F 53.6 °F 68% 30.01 in 10.0 mi SSW 11.5 mph 19.6 mph N/A   Unknown
2:15 PM 64.4 °F 53.6 °F 68% 30.00 in 10.0 mi SSW 11.5 mph - N/A   Unknown
2:35 PM 66.2 °F 53.6 °F 64% 29.99 in 10.0 mi SSW 13.8 mph 21.9 mph N/A   Unknown
2:55 PM 66.2 °F 53.6 °F 64% 29.99 in 10.0 mi SSW 11.5 mph 25.3 mph N/A   Unknown
3:15 PM 64.4 °F 53.6 °F 68% 29.99 in 10.0 mi South 12.7 mph - N/A   Unknown
3:35 PM 64.4 °F 53.6 °F 68% 29.99 in 10.0 mi SSW 16.1 mph 21.9 mph N/A   Unknown
3:55 PM 64.4 °F 53.6 °F 68% 29.99 in 10.0 mi SSW 15.0 mph 23.0 mph N/A   Unknown
4:15 PM 66.2 °F 53.6 °F 64% 29.99 in 10.0 mi SSW 12.7 mph 20.7 mph N/A   Unknown
4:35 PM 64.4 °F 53.6 °F 68% 29.99 in 10.0 mi SSW 12.7 mph 19.6 mph N/A   Unknown
4:55 PM 64.4 °F 53.6 °F 68% 29.99 in 10.0 mi SSW 10.4 mph - N/A   Unknown
5:15 PM 64.4 °F 53.6 °F 68% 29.99 in 10.0 mi SSW 13.8 mph 19.6 mph N/A   Unknown
5:35 PM 64.4 °F 53.6 °F 68% 29.98 in 10.0 mi SSW 18.4 mph 23.0 mph N/A   Unknown
5:55 PM 62.6 °F 53.6 °F 72% 29.99 in 10.0 mi SSW 11.5 mph - N/A   Unknown
6:15 PM 64.4 °F 53.6 °F 68% 29.99 in 10.0 mi South 16.1 mph 20.7 mph N/A   Unknown
6:35 PM 64.4 °F 53.6 °F 68% 29.99 in 10.0 mi SSW 18.4 mph 24.2 mph N/A   Unknown
6:55 PM 64.4 °F 53.6 °F 68% 29.98 in 10.0 mi SSW 13.8 mph 25.3 mph N/A   Unknown
7:15 PM 62.6 °F 53.6 °F 72% 29.97 in 10.0 mi SSW 16.1 mph 24.2 mph N/A   Unknown
7:35 PM 62.6 °F 53.6 °F 72% 29.96 in 10.0 mi SSW 17.3 mph 24.2 mph N/A   Unknown
7:55 PM 64.4 °F 53.6 °F 68% 29.95 in 10.0 mi SSW 17.3 mph 24.2 mph N/A   Unknown
8:15 PM 64.4 °F 55.4 °F 73% 29.94 in 10.0 mi SSW 20.7 mph 29.9 mph N/A   Unknown
8:35 PM 64.4 °F 55.4 °F 73% 29.94 in 10.0 mi SSW 27.6 mph 35.7 mph N/A   Unknown
8:55 PM 64.4 °F 55.4 °F 73% 29.93 in 10.0 mi SW 20.7 mph 34.5 mph N/A   Unknown
9:15 PM 64.4 °F 55.4 °F 73% 29.94 in 10.0 mi SSW 25.3 mph 36.8 mph N/A   Unknown
9:55 PM 64.4 °F 55.4 °F 73% 29.95 in 10.0 mi SW 23.0 mph 32.2 mph N/A   Unknown
10:15 PM 64.4 °F 55.4 °F 73% 29.96 in 10.0 mi SW 23.0 mph 34.5 mph N/A   Unknown
10:35 PM 64.4 °F 55.4 °F 73% 29.97 in 10.0 mi SW 20.7 mph 31.1 mph N/A   Unknown
10:55 PM 64.4 °F 55.4 °F 73% 29.97 in 10.0 mi SW 18.4 mph 31.1 mph N/A   Unknown
11:15 PM 64.4 °F 55.4 °F 73% 29.98 in 10.0 mi SW 20.7 mph 31.1 mph N/A   Unknown
11:35 PM 64.4 °F 55.4 °F 73% 29.97 in 10.0 mi SW 18.4 mph 28.8 mph N/A   Unknown
11:55 PM 64.4 °F 55.4 °F 73% 29.97 in 10.0 mi SW 18.4 mph 29.9 mph N/A   Unknown